Total_Precipitation_Accumulation
0.01 0.00 0.00 0.03 0.02 0.00 0.00 0.00 0.00 0.00 0.02 0.03 0.01 0.02 0.08 0.17 0.17 0.28 0.12 0.09 0.06 0.06 0.15 0.27 0.47 0.44 0.34 0.24 0.18 0.16 0.22 0.36 0.47 0.63 0.71 0.60 0.42 0.32 0.28 0.31 0.26 0.25 0.37 0.43 0.34 0.50 0.47 0.33 0.13
0.00 0.01 0.05 0.11 0.03 0.00 0.00 0.00 0.00 0.00 0.00 0.00 0.03 0.08 0.17 0.38 0.22 0.17 0.22 0.12 0.04 0.05 0.16 0.18 0.45 0.51 0.38 0.24 0.19 0.16 0.21 0.30 0.35 0.47 0.64 0.74 0.64 0.54 0.41 0.33 0.23 0.26 0.36 0.44 0.21 0.24 0.33 0.35 0.14
0.07 0.15 0.20 0.10 0.02 0.00 0.00 0.00 0.00 0.00 0.00 0.03 0.07 0.06 0.27 0.46 0.19 0.15 0.11 0.06 0.07 0.08 0.17 0.25 0.54 0.60 0.53 0.32 0.20 0.25 0.26 0.32 0.32 0.37 0.59 0.77 0.92 0.78 0.87 0.49 0.19 0.24 0.38 0.47 0.13 0.16 0.23 0.28 0.16
0.07 0.41 0.30 0.10 0.03 0.00 0.00 0.00 0.00 0.00 0.00 0.01 0.01 0.04 0.34 0.82 0.57 0.30 0.14 0.06 0.12 0.16 0.16 0.25 0.54 0.68 0.60 0.48 0.40 0.33 0.32 0.41 0.42 0.45 0.64 0.90 1.22 1.26 1.13 0.57 0.21 0.17 0.22 0.30 0.17 0.13 0.14 0.18 0.10
0.22 0.41 0.21 0.10 0.02 0.00 0.00 0.00 0.00 0.00 0.00 0.00 0.01 0.03 0.23 0.60 0.60 0.61 0.50 0.17 0.18 0.33 0.34 0.31 0.60 0.57 0.52 0.53 0.50 0.43 0.42 0.46 0.44 0.52 0.71 0.76 0.71 1.18 1.04 0.66 0.28 0.15 0.22 0.45 0.42 0.17 0.18 0.16 0.11
0.42 0.41 0.15 0.06 0.00 0.00 0.00 0.00 0.00 0.00 0.00 0.00 0.00 0.02 0.13 0.32 0.70 1.09 1.25 0.79 0.60 0.59 0.53 0.49 0.60 0.63 0.44 0.41 0.41 0.36 0.41 0.47 0.50 0.54 0.82 0.92 0.59 0.70 0.75 0.63 0.31 0.19 0.20 0.45 0.43 0.28 0.17 0.17 0.22
0.34 0.28 0.13 0.01 0.00 0.00 0.01 0.02 0.01 0.00 0.00 0.00 0.00 0.07 0.20 0.31 0.49 0.93 1.98 2.02 1.35 1.15 1.23 0.93 0.82 0.62 0.33 0.30 0.30 0.30 0.25 0.30 0.32 0.45 0.73 0.80 0.54 0.45 0.39 0.47 0.36 0.27 0.24 0.36 0.34 0.38 0.26 0.18 0.26
0.31 0.37 0.16 0.04 0.00 0.01 0.00 0.03 0.02 0.00 0.00 0.01 0.02 0.12 0.19 0.10 0.36 0.79 1.76 3.05 2.35 1.64 1.83 2.05 1.99 1.55 0.73 0.49 0.30 0.26 0.22 0.25 0.22 0.36 0.64 0.56 0.45 0.27 0.23 0.17 0.26 0.39 0.35 0.33 0.35 0.34 0.36 0.31 0.33
0.70 0.92 0.44 0.10 0.04 0.04 0.00 0.00 0.02 0.01 0.00 0.01 0.01 0.05 0.04 0.11 0.64 0.78 1.65 2.65 3.05 2.11 1.88 2.05 2.25 1.62 1.30 0.91 0.77 0.39 0.30 0.19 0.14 0.25 0.36 0.27 0.28 0.12 0.03 0.01 0.04 0.15 0.26 0.32 0.35 0.35 0.24 0.17 0.18
1.09 0.91 0.30 0.07 0.07 0.07 0.02 0.00 0.01 0.01 0.02 0.06 0.14 0.13 0.08 0.21 0.65 0.73 0.99 1.72 2.58 2.03 2.06 2.47 2.04 2.16 1.45 1.31 1.40 0.87 0.62 0.43 0.31 0.22 0.28 0.17 0.18 0.11 0.03 0.02 0.02 0.08 0.17 0.20 0.31 0.34 0.15 0.03 0.04
0.78 0.46 0.05 0.04 0.17 0.25 0.15 0.02 0.02 0.02 0.05 0.01 0.07 0.16 0.30 0.58 0.78 0.78 0.48 0.58 1.27 1.96 1.72 1.75 1.90 2.48 1.81 1.57 1.42 1.21 0.87 0.63 0.56 0.55 0.61 0.47 0.26 0.06 0.02 0.02 0.03 0.11 0.09 0.13 0.14 0.12 0.02 0.01 0.04
0.45 0.12 0.10 0.15 0.19 0.31 0.21 0.12 0.11 0.09 0.02 0.01 0.05 0.21 0.41 0.59 1.00 1.00 0.68 0.59 0.66 0.98 1.77 2.06 1.81 2.07 2.05 1.93 1.61 1.26 1.04 0.94 0.75 0.69 0.66 0.74 0.46 0.23 0.16 0.07 0.08 0.12 0.08 0.13 0.13 0.10 0.02 0.01 0.05
0.31 0.19 0.19 0.27 0.27 0.20 0.22 0.36 0.14 0.05 0.03 0.04 0.11 0.28 0.36 0.55 0.76 0.90 1.08 0.80 0.74 0.68 1.03 1.21 1.68 2.08 2.16 1.70 1.80 1.56 0.92 0.77 0.87 0.91 0.79 0.80 0.82 0.59 0.34 0.29 0.28 0.22 0.16 0.13 0.15 0.17 0.18 0.14 0.13
0.10 0.35 0.43 0.54 0.43 0.50 0.39 0.32 0.30 0.08 0.07 0.18 0.26 0.32 0.25 0.32 0.63 0.79 0.90 0.80 0.74 0.76 0.83 0.82 0.87 1.47 1.99 1.53 0.98 1.70 1.99 1.13 0.56 0.69 0.80 0.88 1.18 1.49 1.48 0.82 0.52 0.36 0.27 0.23 0.24 0.34 0.35 0.30 0.23
0.18 0.54 0.72 0.68 0.60 0.55 0.63 0.52 0.36 0.15 0.13 0.20 0.29 0.42 0.54 0.34 0.44 0.67 1.00 0.77 0.64 0.76 0.82 0.58 0.61 0.70 1.07 1.82 1.18 0.97 1.39 1.84 1.11 0.48 0.53 0.68 1.00 1.29 1.23 1.56 1.32 0.72 0.59 0.68 0.68 0.80 0.70 0.58 0.39
0.32 0.55 0.90 0.57 0.75 0.71 0.89 0.58 0.16 0.23 0.23 0.21 0.22 0.33 0.58 0.50 0.34 0.46 0.75 1.16 0.82 0.88 0.77 0.82 0.59 0.54 0.64 0.68 1.37 1.76 1.26 1.32 1.23 0.75 0.44 0.39 0.48 0.80 1.18 0.99 0.74 0.69 0.66 0.70 0.64 0.64 0.77 0.79 0.73
0.44 0.39 0.51 0.63 0.66 0.93 0.90 0.55 0.34 0.20 0.20 0.14 0.19 0.17 0.26 0.67 0.69 0.67 0.52 0.55 0.97 1.07 1.19 1.15 1.17 0.94 0.73 0.89 1.09 1.47 2.23 1.74 1.26 1.04 0.54 0.47 0.45 0.39 0.53 0.69 0.74 0.67 0.62 0.55 0.54 0.66 0.68 0.75 0.67
0.30 0.25 0.30 0.51 0.46 0.90 0.77 0.65 0.56 0.29 0.13 0.13 0.11 0.10 0.09 0.20 0.77 0.82 0.56 0.62 0.60 0.91 1.53 1.62 1.63 1.73 1.70 1.57 1.89 2.41 2.03 1.83 1.70 1.25 1.09 0.80 0.44 0.48 0.64 0.83 0.96 0.94 0.72 0.56 0.53 0.54 0.55 0.52 0.51
0.33 0.20 0.22 0.26 0.29 0.62 0.68 0.39 0.51 0.53 0.27 0.19 0.16 0.06 0.04 0.08 0.47 1.46 1.13 1.04 0.99 0.81 1.03 1.79 2.10 2.08 2.41 2.20 2.08 1.79 1.90 1.39 1.02 0.96 1.09 1.29 1.17 0.99 0.79 0.87 1.01 0.95 0.80 0.75 0.67 0.73 0.69 0.52 0.52
0.36 0.29 0.30 0.35 0.58 0.58 0.66 0.50 0.33 0.55 0.38 0.29 0.27 0.14 0.07 0.05 0.15 1.03 1.41 1.54 1.05 0.83 1.14 1.18 1.74 2.19 2.13 2.37 2.23 2.25 1.82 1.53 1.22 1.27 1.09 1.08 1.06 1.14 1.23 1.19 1.03 0.80 0.85 0.86 0.75 0.59 0.61 0.66 0.85
0.42 0.31 0.26 0.56 0.51 0.56 0.63 0.61 0.25 0.22 0.24 0.25 0.27 0.38 0.16 0.10 0.06 0.31 0.94 1.38 1.36 1.06 1.10 1.40 1.60 1.91 1.96 2.24 2.68 2.68 2.54 2.13 1.79 1.34 1.22 1.32 1.27 1.47 1.54 1.52 1.59 1.50 1.22 0.94 0.88 0.75 0.71 0.78 0.81
0.42 0.27 0.36 0.55 0.77 0.60 0.46 0.56 0.14 0.09 0.16 0.21 0.14 0.33 0.33 0.18 0.15 0.24 0.46 0.93 0.97 1.00 0.97 1.09 1.65 2.32 2.63 2.41 2.43 2.60 2.80 2.67 2.35 2.51 2.30 1.99 1.87 1.98 2.35 2.53 2.44 2.24 1.85 1.76 1.84 1.78 1.55 1.55 1.31
0.38 0.31 0.36 0.47 0.68 0.63 0.28 0.47 0.11 0.09 0.10 0.10 0.11 0.12 0.39 0.44 0.45 0.40 0.35 0.47 0.68 0.79 0.90 0.87 1.18 1.73 2.93 3.39 3.45 3.37 2.87 2.80 2.55 2.42 2.62 2.34 2.30 2.15 2.10 2.41 2.91 2.99 3.09 2.71 2.35 2.34 2.30 2.20 2.19
0.90 0.76 0.67 0.48 0.62 0.90 0.42 0.34 0.14 0.12 0.13 0.19 0.31 0.16 0.32 0.66 0.78 0.79 0.71 0.66 0.41 0.55 0.69 0.74 0.83 1.26 1.92 3.39 4.54 4.33 3.87 3.16 2.92 3.01 2.86 3.05 2.50 2.21 2.03 2.49 2.77 3.04 2.76 2.54 2.68 2.59 2.33 2.15 1.86
0.89 0.96 1.26 1.14 1.12 0.49 0.30 0.55 0.26 0.02 0.05 0.15 0.35 0.11 0.17 0.53 0.59 0.87 0.70 0.43 0.36 0.37 0.47 0.50 0.60 0.75 1.20 1.81 2.78 3.35 3.54 2.66 2.24 2.08 2.34 2.43 2.37 2.05 2.07 1.66 2.02 2.22 2.40 2.62 2.32 2.17 2.04 2.04 2.18
0.33 0.46 1.42 1.21 0.82 0.44 0.52 0.71 0.35 0.05 0.03 0.12 0.28 0.12 0.10 0.38 0.47 0.66 0.58 0.45 0.44 0.56 0.47 0.47 0.50 0.57 0.68 1.31 2.00 2.30 2.44 2.24 1.87 1.71 1.61 1.51 1.45 1.42 1.44 1.50 1.35 1.37 1.52 1.74 1.84 1.69 1.53 1.46 1.48
0.52 0.46 0.33 0.73 0.52 0.77 0.54 0.57 0.55 0.28 0.05 0.19 0.26 0.22 0.20 0.28 0.52 0.69 0.75 0.68 0.37 0.45 0.49 0.41 0.39 0.40 0.46 0.69 1.08 1.48 1.48 1.58 1.33 1.32 1.24 1.11 1.12 1.16 1.21 1.32 1.40 1.37 1.42 1.49 1.54 1.48 1.33 1.24 1.07
0.26 0.18 0.29 0.73 0.78 0.60 0.31 0.25 0.64 0.52 0.50 0.46 0.36 0.33 0.32 0.47 0.84 0.99 1.25 1.12 0.53 0.44 0.51 0.51 0.45 0.39 0.44 0.56 0.60 0.68 0.95 1.15 1.22 1.17 1.07 0.98 1.08 1.06 1.45 1.33 1.05 1.05 1.10 1.32 1.65 1.64 1.44 1.36 1.31
0.13 0.20 0.19 0.28 0.26 0.44 0.29 0.39 0.67 0.59 0.67 0.58 0.47 0.66 0.78 0.97 1.12 1.09 1.20 1.21 0.78 0.52 0.61 0.58 0.59 0.55 0.52 0.48 0.47 0.47 0.50 0.85 1.11 1.07 1.16 0.95 0.89 1.08 1.16 1.32 1.41 1.29 1.12 1.08 1.16 1.15 1.23 1.48 1.54
0.07 0.03 0.12 0.42 0.25 0.38 0.41 0.33 0.39 0.44 0.51 0.61 0.62 0.78 0.88 1.05 1.13 1.22 1.23 1.32 1.12 0.79 0.69 0.59 0.49 0.57 0.50 0.50 0.46 0.66 0.42 0.45 0.71 0.96 0.94 0.74 0.53 0.50 0.51 0.45 0.51 0.52 0.68 0.79 0.77 0.81 0.90 0.97 1.03